02:01
Airports
History
Links
Donate
Help keep this website running!
PayPal
Bitcoin
Information on this page is community maintained and may be outdated or inaccurate and is intended for reference only or PC simulator navigating.
Always use approved charts for navigating.
SBHT
ALTAMIRA
ALTAMIRA (SBHT)
Altamira, Para, Brazil (68372)
(C)
Lat/Lng:3° 15' 14.06" S / 52° 15' 14.31" W
-3.253906 / -52.253976
Elevation:368'ft 112mMSL
ID / ICAO:SBHT
Runways:1
Longest:(07-25) 1,995.6m 6,547ft Asphalt
Controlled:Yes
Distance To
Airport ID:
Airport Radio Frequencies
Tower: 125.85
METARUpdated 06-28-17 01:00 GMT
Altimeter: 29.91
Visibility: 6.2 statute miles
Wind: 0 knots (000°)
Temp: 24°c 75°f
Humidity: 100.0%

METAR: SBHT 280100Z 00000KT 9999 SCT020 24/24 Q1013

(Powered by phpweather)
Runway 07 / 25
Dimensions:1995.6 x 38.1m 6547' x 125'ft
Surface:Asphalt
Edge Lights:Low intensity
Runway 07 [A]Runway 25 [B]
Heading:051°TH 231°TH
Lat:
Lng:
3° 15' 34.11"S
52° 15' 39.85"W
3° 14' 54.01"S
52° 14' 48.78"W
User Notes and Comments
Google Map
Nearby Airports
4 Continental 2.9 NM
SNCF S 187°
4 Aeroxingu 7.1 NM
SNZE NE 37°
4 Pousada Rio Xingu 36.7 NM
SJJH E 89°
4 Fazenda Peturu 40.1 NM
SWQY NNW 348°
4 Chacara Maringa 51.4 NM
SDWV NNE 23°
(U) WILMA REBELO 51.8 NM
SNWR NE 34°
(C) Saul 69.9 NM
SOOS WSW 248°
VFR Chart
Flight Planning at SkyVector.com